Location: Unspecified
(30.2789°N, 0.0000°E)
Time: 04:19:06
(UTC+00:00)

Cosmos 1428 Rocket - Visible Passes

Search period start: 04 April 2026 00:00
Search period end: 14 April 2026 00:00
Orbit: 947 x 987 km, 82.9° (Epoch: 29 March)

Date Brightness Start Highest point End Pass type
(mag) Time Alt. Az. Time Alt. Az. Time Alt. Az.
4 Apr 5.7 02:42:41 10° N 02:46:13 35° N 02:46:13 35° N visible
5 Apr 7.1 01:22:47 10° NE 01:23:59 13° NE 01:23:59 13° NE visible
5 Apr 5.8 03:05:29 10° NNW 03:08:25 29° NNW 03:08:25 29° NNW visible
6 Apr 6.7 01:43:55 10° NNE 01:46:14 20° NE 01:46:14 20° NE visible
6 Apr 6.2 03:28:45 10° NNW 03:30:41 19° NW 03:30:41 19° NW visible
7 Apr 6.3 02:06:01 10° N 02:08:32 24° NNE 02:08:32 24° NNE visible
7 Apr 6.6 03:52:44 10° NW 03:52:59 11° NW 03:52:59 11° NW visible
8 Apr 6.2 02:28:35 10° N 02:30:53 24° N 02:30:53 24° N visible
9 Apr 7.1 01:07:46 10° NNE 01:08:48 13° NE 01:08:48 13° NE visible
9 Apr 6.4 02:51:35 10° NNW 02:53:15 19° NNW 02:53:15 19° NNW visible
10 Apr 6.8 01:29:28 10° NNE 01:31:12 18° NNE 01:31:12 18° NNE visible
10 Apr 6.6 03:15:06 10° NW 03:15:40 12° NW 03:15:40 12° NW visible
11 Apr 6.6 01:51:48 10° N 01:53:38 20° N 01:53:38 20° N visible
12 Apr 6.5 02:14:34 10° NNW 02:16:05 18° NNW 02:16:05 18° NNW visible
13 Apr 7.1 00:53:06 10° NNE 00:54:05 14° NNE 00:54:05 14° NNE visible
13 Apr 6.7 02:37:47 10° NNW 02:38:33 13° NNW 02:38:33 13° NNW visible
